Overview Statistics Trail Chart Weather Telemetry Raw packets
 

This is the latest recevied weather packets stored in our database for station/object WW6Q. If no packets are shown the sender has not sent any weather packets the latest 10 day(s).

<< 14 15 16 17 18 19 20 >>
Time Temp. Humidity Pressure Rain* Wind** Luminosity Snow
1788529725 23.89° C 86% 1015.2 hPa 0 mm - 216 W/m² -
1788529425 23.33° C 87% 1015 hPa 0 mm - 261 W/m² -
1788529125 23.33° C 88% 1015.1 hPa 0 mm - 187 W/m² -
1788528821 23.33° C 89% 1015.2 hPa 0 mm - 158 W/m² -
1788528520 22.78° C 91% 1015.1 hPa 0 mm - 143 W/m² -
1788528216 22.78° C 91% 1015.1 hPa 0 mm - 123 W/m² -
1788527916 22.22° C 92% 1015 hPa 0 mm - 104 W/m² -
1788527612 22.22° C 92% 1015 hPa 0 mm - 101 W/m² -
1788527312 22.22° C 92% 1015 hPa 0 mm - 87 W/m² -
1788527011 22.22° C 92% 1014.8 hPa 0 mm - 79 W/m² -
1788526706 22.22° C 92% 1015 hPa 0 mm - 76 W/m² -
1788526402 22.22° C 92% 1015 hPa 0 mm - 76 W/m² -
1788526101 22.22° C 93% 1015.1 hPa 0 mm - 78 W/m² -
1788525799 22.22° C 93% 1014.7 hPa 0 mm - 77 W/m² -
1788525499 22.22° C 92% 1014.7 hPa 0 mm - 72 W/m² -
1788525194 22.22° C 90% 1014.9 hPa 0 mm - 65 W/m² -
1788524889 22.22° C 91% 1014.7 hPa 0 mm - 71 W/m² -
1788524589 21.67° C 92% 1015.2 hPa 0 mm - 70 W/m² -
1788524284 21.67° C 93% 1015.1 hPa 0 mm - 63 W/m² -
1788523980 21.67° C 93% 1015.3 hPa 0 mm - 48 W/m² -
1788523676 21.67° C 94% 1015.2 hPa 0 mm - 39 W/m² -
1788523372 21.67° C 95% 1015.4 hPa 0 mm - 28 W/m² -
1788523067 21.11° C 96% 1015.3 hPa 0 mm - 18 W/m² -
1788522762 21.11° C 97% 1015.2 hPa 0 mm - 18 W/m² -
1788522457 20.56° C 97% 1015 hPa 0 mm - 19 W/m² -

* Rain latest hour (hover to see other rain measurements)
** Current wind speed in m/s (hover to see current wind gust speed)